sat.trackr.live / text

‹ back to catalog

STARLINK-5374

NORAD 56144 · 2023-046BE

PAYLOAD ACTIVE UNKNOWN

§ Identity

Operator
Country
US
Launch date
2023-03-29
Launch site
AFETR
Launch vehicle
Mass (kg)
RCS (m²)

Purposes: comms

External: N2YO · Heavens-Above · Gunter

§ Orbital elements

Epoch: 2026-09-20T00:45:01.529280Z

Period
94.27 min
Inclination
43.0023°
Eccentricity
0.0001585
Mean motion
15.27575312 rev/d
Perigee alt
482.0 km
Apogee alt
484.2 km
Semi-major
6,861.2 km
B*
1.0257e-6
RAAN
129.3183°
Arg perigee
268.0010°
Mean anomaly
92.0660°
Rev number
19,192

§ Raw data

STARLINK-53741 56144U 23046BE  26263.03126770 -.00000234  00000+0  10257-5 0  99992 56144  43.0023 129.3183 0001585 268.0010  92.0660 15.27575312191920

JSON: /api/v1/satellites/56144 · /tle

For live sub-satellite position, see the globe view (requires WebGL).

§ Visibility from observer

Set your observer location to see the next 7 days of passes ≥ 10°. The values pass through the URL so the page stays shareable.

No JS? Fill the form by hand. The geolocation button needs JavaScript.